{"data":{"norad_id":53412,"intl_designator":"2022-097AA","name":"STARLINK-4496","alt_names":[],"object_type":"PAYLOAD","status":"ACTIVE","operator":null,"country":"US","launch_date":"2022-08-10","launch_site_code":"AFETR","launch_vehicle":null,"mission":null,"orbit_class":"UNKNOWN","rcs_meters":null,"size_class":null,"mass_kg":null,"dimensions":null,"purposes":["comms"],"wikipedia_slug":null,"has_3d_model":false,"image_url":null,"decayed_at":null,"tle_current":{"epoch":"2026-05-25T03:21:03.974112Z","epoch_age_seconds":56348,"freshness":"FRESH","line1":"1 53412U 22097AA  26145.13962933  .00000367  00000+0  41141-4 0  9999","line2":"2 53412  53.2146 130.9250 0001204  70.7628 289.3494 15.08837419210193","mean_motion":15.08837419,"eccentricity":0.0001204,"inclination_deg":53.2146,"raan_deg":130.925,"arg_perigee_deg":70.7628,"mean_anomaly_deg":289.3494,"bstar":4.1141e-5,"rev_number":21019,"period_min":95.437717932153,"perigee_km":538.91836431113,"apogee_km":540.58419180848,"semimajor_km":6917.8882780598,"source":"CELESTRAK","updated_at":"2026-05-25T13:38:17.400977Z"}}}